FW9176 Weather Reports


Display with metric or nautical units.
time (UTC)temp
F
wind
direction
speed
MPH
gust
MPH
rain 1hr
in
rain 24hr
in
rain mn
in
humidity
%
barometer
mb
20260903074610 80 160 0.0 1.0 0.00 0.00 0.00 79 1010.9
20260903073134 80 0 0.0 0.0 0.00 0.00 0.00 78 1010.9
20260903071622 80 0 0.0 0.0 0.00 0.00 0.00 78 1011.0
20260903070100 80 0 0.0 0.0 0.00 0.00 0.00 78 1011.0
20260903064603 81 0 0.0 0.0 0.00 0.00 0.00 78 1011.2
20260903063057 81 0 0.0 0.0 0.00 0.00 0.00 77 1011.2
20260903061604 81 0 0.0 0.0 0.00 0.00 0.00 77 1011.2
20260903060144 81 0 0.0 0.0 0.00 0.00 0.00 77 1011.3
20260903054558 81 0 0.0 0.0 0.00 0.00 0.00 77 1011.1
20260903053058 81 0 0.0 0.0 0.00 0.00 0.00 77 1011.1
20260903051607 82 0 0.0 0.0 0.00 0.00 0.00 76 1011.0
20260903050059 82 0 0.0 0.0 0.00 0.00 0.00 75 1010.9
20260903044604 83 0 0.0 0.0 0.00 0.00 0.00 75 1011.1
20260903043102 83 0 0.0 0.0 0.00 0.00 0.00 74 1011.0
20260903041556 83 0 0.0 0.0 0.00 0.00 0.00 74 1011.0
20260903040105 84 161 0.0 0.0 0.00 0.00 0.00 73 1011.1
20260903034602 84 0 0.0 0.0 0.00 0.00 0.00 73 1010.8
20260903033058 85 150 0.0 1.0 0.00 0.00 0.00 72 1010.9
20260903031604 85 0 0.0 0.0 0.00 0.00 0.00 72 1010.8
20260903024559 85 0 0.0 0.0 0.00 0.00 0.00 72 1010.8
20260903023102 85 0 0.0 2.0 0.00 0.00 0.00 72 1010.9
20260903021607 86 0 0.0 2.0 0.00 0.00 0.00 71 1010.8
20260903020101 86 197 0.0 2.0 0.00 0.00 0.00 70 1010.7
20260903014608 87 0 0.0 3.0 0.00 0.00 0.00 70 1010.6
20260903013056 87 196 0.0 2.0 0.00 0.00 0.00 69 1010.5
20260903011559 88 158 1.0 3.0 0.00 0.00 0.00 68 1010.3
20260903010105 88 0 0.0 4.0 0.00 0.00 0.00 67 1010.3
20260903004600 89 210 0.0 3.0 0.00 0.00 0.00 66 1010.2
20260903003059 90 193 0.0 4.0 0.00 0.00 0.00 64 1010.2
20260903001619 91 0 0.0 1.0 0.00 0.00 0.00 62 1010.3
20260903000101 93 0 0.0 1.0 0.00 0.00 0.00 59 1010.4
20260902234623 93 0 0.0 3.0 0.00 0.00 0.00 58 1010.3
20260902233104 94 0 1.0 8.0 0.00 0.00 0.00 58 1010.3
20260902231613 93 0 0.0 4.0 0.00 0.00 0.00 59 1010.5
20260902230114 93 0 0.0 3.0 0.00 0.00 0.00 58 1010.6
20260902224605 94 0 0.0 2.0 0.00 0.00 0.00 57 1010.6
20260902223101 94 0 0.0 3.0 0.00 0.00 0.00 56 1010.4
20260902221601 94 0 0.0 5.0 0.00 0.00 0.00 55 1010.6
20260902214614 95 280 1.0 3.0 0.00 0.00 0.00 52 1010.5
20260902213100 95 286 0.0 4.0 0.00 0.00 0.00 54 1010.7
20260902211604 95 276 1.0 4.0 0.00 0.00 0.00 52 1010.7
20260902204601 95 290 0.0 4.0 0.00 0.00 0.00 52 1010.7
20260902203109 95 271 0.0 8.0 0.00 0.00 0.00 53 1010.8
20260902201603 95 183 1.0 6.0 0.00 0.00 0.00 52 1011.0
20260902200059 95 175 0.0 4.0 0.00 0.00 0.00 53 1011.0
20260902194558 94 0 0.0 6.0 0.00 0.00 0.00 53 1011.0
20260902193101 95 164 0.0 5.0 0.00 0.00 0.00 53 1011.2
20260902191605 96 0 0.0 4.0 0.00 0.00 0.00 53 1011.4
20260902190108 96 0 1.0 5.0 0.00 0.00 0.00 51 1011.4
20260902184559 96 259 0.0 6.0 0.00 0.00 0.00 51 1011.7
20260902183104 95 0 1.0 6.0 0.00 0.00 0.00 52 1011.7
20260902181605 95 124 1.0 5.0 0.00 0.00 0.00 52 1011.7
20260902180105 94 141 1.0 4.0 0.00 0.00 0.00 53 1011.9
20260902174608 95 0 0.0 4.0 0.00 0.00 0.00 55 1012.0
20260902173105 94 257 0.0 7.0 0.00 0.00 0.00 56 1012.0
20260902171606 93 273 0.0 4.0 0.00 0.00 0.00 59 1012.0
20260902164601 92 281 0.0 6.0 0.00 0.00 0.00 57 1012.4
20260902163106 91 0 0.0 4.0 0.00 0.00 0.00 57 1012.5
20260902161614 90 92 0.0 5.0 0.00 0.00 0.00 57 1012.6
20260902160059 88 0 0.0 3.0 0.00 0.00 0.00 58 1012.7
20260902154559 88 0 0.0 3.0 0.00 0.00 0.00 61 1012.9
20260902153117 87 275 0.0 3.0 0.00 0.00 0.00 60 1012.8
20260902151556 86 0 0.0 5.0 0.00 0.00 0.00 61 1012.6
20260902150059 86 0 0.0 3.0 0.00 0.00 0.00 61 1012.6
20260902144618 86 0 0.0 3.0 0.00 0.00 0.00 62 1012.6
20260902143059 85 0 0.0 2.0 0.00 0.00 0.00 64 1012.5
20260902141555 84 0 0.0 2.0 0.00 0.00 0.00 65 1012.5
20260902134602 81 0 0.0 3.0 0.00 0.00 0.00 70 1012.6
20260902133102 80 0 0.0 3.0 0.00 0.00 0.00 71 1012.7
20260902131602 80 0 0.0 2.0 0.00 0.00 0.00 72 1012.9
20260902124603 79 0 0.0 2.0 0.00 0.00 0.00 73 1012.9
20260902123104 79 0 0.0 0.0 0.00 0.00 0.00 73 1012.9
20260902121612 78 0 0.0 2.0 0.00 0.00 0.00 73 1012.7
20260902120111 78 0 0.0 0.0 0.00 0.00 0.00 73 1012.6
20260902114616 78 0 0.0 3.0 0.00 0.00 0.00 72 1012.4
20260902113103 78 0 0.0 3.0 0.00 0.00 0.00 72 1012.5
20260902111602 78 0 0.0 0.0 0.00 0.00 0.00 72 1012.5
20260902110059 79 0 0.0 1.0 0.00 0.00 0.00 72 1012.4
20260902104604 79 0 0.0 1.0 0.00 0.00 0.00 71 1012.3
20260902103119 79 0 0.0 0.0 0.00 0.00 0.00 72 1012.3
20260902101558 79 0 0.0 1.0 0.00 0.00 0.00 71 1012.3
20260902100059 79 0 0.0 3.0 0.00 0.00 0.00 72 1012.3
20260902094601 79 0 0.0 2.0 0.00 0.00 0.00 72 1012.3
20260902093110 79 0 0.0 2.0 0.00 0.00 0.00 72 1012.1
20260902091559 79 0 0.0 1.0 0.00 0.00 0.00 73 1012.1
20260902084600 80 0 0.0 0.0 0.00 0.00 0.00 72 1012.0
20260902083055 80 0 0.0 1.0 0.00 0.00 0.00 72 1012.0
20260902081555 80 0 0.0 1.0 0.00 0.00 0.00 72 1012.0
20260902080053 80 0 0.0 0.0 0.00 0.00 0.00 72 1011.9